Погода в Павловском Посаде

Россия / Московская область     55°46′45″N   38°39′04″E
темп.,
°C
ветер,
м/с
пор.,
м/с
влажн.,
%
обл.,
%
осадки,
мм/ч
давл.,
гПа
погр.,
м
18 мая, вт
вт1800:00+17вюв311859 0.0 1011231
03:00+16юв3138316 0.0 1010288
06:00+17юв413715 0.0 1010293
09:00+23юв5114650 0.0 1010525
12:00+27юв59325 0.0 10101160
15:00+29юв511325 0.0 10092967
18:00+25вюв6114510 0.0 1008881
21:00+21вюв6156012 0.0 1008714
19 мая, ср
ср1900:00+19вюв516750 0.0 1007490
03:00+17вюв413715 0.0 1007429
06:00+17вюв4107481 0.0 1007328
09:00+21ююв51061100 0.0 1008833
12:00+24юв51050100 0.0 10081459
15:00+26ююв594765 0.0 10082021
18:00+24юв37588 0.0 10071311
21:00+18юв118676 0.4 100713
20 мая, чт
чт2000:00+16вюв31296100 5.6 1007327
03:00+16вюв41195100 6.3 1006343
06:00+16вюв41093100 0.4 1006443
09:00+19ююв6107371 0.4 10061146
12:00+20ююв69548 0.0 10061588
15:00+20ююв71156100 0.5 10061666
18:00+18ююв5107217 0.4 10061211
21:00+14ююв4119018 0.7 1006425
21 мая, пт
пт2100:00+12ююз38965 0.0 1007296
03:00+10юз299579 0.0 1007292
06:00+11юз3891100 0.1 1008512
09:00+12юз578198 0.1 1009733
12:00+11зюз5985100 0.3 1012897
15:00+14зсз486652 0.3 10131230
18:00+16з255884 0.1 10141367
21:00+12ююз2477100 0.1 101667
22 мая, сб
сб2200:00+11ю2483100 0.0 101688
03:00+9юз1188100 0.0 101713
06:00+10ю3686100 0.0 1018217
09:00+14ю2377100 0.1 1018542
12:00+18в3355100 0.1 10171442
15:00+18вюв3251100 0.1 10171470
18:00+17вюв23610 0.0 1017537
21:00+11вюв35920 0.0 101890